Location: Mohawk View
(42.7837°N, 73.7885°W)
Time: 02:12:19
(UTC+00:00)

Cosmos 1844 Rocket - Pass Details

Date: 17 June 2021
Orbit: 823 x 846 km, 71.0° (Epoch: 02 August)

Event Time Altitude Azimuth Distance (km) Brightness Sun altitude
Rises 01:40:31 0° 342° (NNW) 3,409 7.1 -10.0°
Reaches altitude 10° 01:43:13 10° 351° (N) 2,473 6.0 -10.3°
Maximum altitude 01:48:21 34° 56° (NE) 1,370 3.7 -11.0°
Enters shadow 01:52:46 13° 117° (ESE) 2,244 4.3 -11.5°
